TimeMST,TemperatureF,Dew PointF,Humidity,Sea Level PressureIn,VisibilityMPH,Wind Direction,Wind SpeedMPH,Gust SpeedMPH,PrecipitationIn,Events,Conditions,WindDirDegrees,DateUTC
12:55 AM,28.9,24.1,82,30.25,10.0,Calm,Calm,-,N/A,,Overcast,0,2012-11-14 07:55:00
1:55 AM,28.0,25.0,88,30.25,9.0,Calm,Calm,-,N/A,,Overcast,0,2012-11-14 08:55:00
2:55 AM,28.9,25.0,85,30.23,10.0,SSW,4.6,-,N/A,,Overcast,210,2012-11-14 09:55:00
3:55 AM,28.0,25.0,88,30.22,10.0,Calm,Calm,-,N/A,,Overcast,0,2012-11-14 10:55:00
4:55 AM,30.0,25.0,82,30.22,10.0,Calm,Calm,-,N/A,,Overcast,0,2012-11-14 11:55:00
5:55 AM,28.9,25.0,85,30.22,10.0,Calm,Calm,-,N/A,,Overcast,0,2012-11-14 12:55:00
6:55 AM,30.0,25.0,82,30.21,10.0,Calm,Calm,-,N/A,,Overcast,0,2012-11-14 13:55:00
7:55 AM,30.0,25.0,82,30.23,10.0,Calm,Calm,-,N/A,,Overcast,0,2012-11-14 14:55:00
8:55 AM,30.0,25.0,82,30.24,9.0,Calm,Calm,-,N/A,,Overcast,0,2012-11-14 15:55:00
9:55 AM,30.9,26.1,82,30.25,10.0,Calm,Calm,-,N/A,,Overcast,0,2012-11-14 16:55:00
10:55 AM,33.1,26.1,75,30.27,10.0,Calm,Calm,-,N/A,,Overcast,0,2012-11-14 17:55:00
11:55 AM,35.1,26.1,70,30.24,10.0,South,3.5,-,N/A,,Mostly Cloudy,170,2012-11-14 18:55:00
12:55 PM,37.0,26.1,65,30.23,10.0,Calm,Calm,-,N/A,,Overcast,0,2012-11-14 19:55:00
1:55 PM,37.9,26.1,62,30.22,10.0,Calm,Calm,-,N/A,,Overcast,0,2012-11-14 20:55:00
2:55 PM,39.0,26.1,60,30.20,10.0,Calm,Calm,-,N/A,,Mostly Cloudy,0,2012-11-14 21:55:00
3:55 PM,39.0,27.0,62,30.22,10.0,Calm,Calm,-,N/A,,Clear,0,2012-11-14 22:55:00
4:55 PM,35.1,28.0,76,30.23,10.0,SSW,4.6,-,N/A,,Clear,200,2012-11-14 23:55:00
5:55 PM,30.9,26.1,82,30.27,10.0,SW,3.5,-,N/A,,Mostly Cloudy,230,2012-11-15 00:55:00
6:55 PM,30.0,25.0,82,30.30,10.0,Calm,Calm,-,N/A,,Partly Cloudy,0,2012-11-15 01:55:00
7:55 PM,30.9,26.1,82,30.30,10.0,SSE,3.5,-,N/A,,Clear,160,2012-11-15 02:55:00
8:55 PM,28.0,24.1,85,30.34,10.0,Calm,Calm,-,N/A,,Clear,0,2012-11-15 03:55:00
9:55 PM,27.0,23.0,85,30.36,10.0,Calm,Calm,-,N/A,,Partly Cloudy,0,2012-11-15 04:55:00
10:55 PM,25.0,21.0,85,30.36,10.0,WNW,3.5,-,N/A,,Clear,290,2012-11-15 05:55:00
11:55 PM,25.0,21.0,85,30.37,10.0,Calm,Calm,-,N/A,,Mostly Cloudy,0,2012-11-15 06:55:00